Location: Unspecified
(42.3650°N, 71.1030°W)
Time: 11:57:56
(UTC+00:00)

Courier 1B - Pass Details

Date: 29 June 2024
Orbit: 962 x 1209 km, 28.3° (Epoch: 25 July)

Event Time Altitude Azimuth Distance (km) Brightness Sun altitude
Rises 06:11:59 0° 254° (WSW) 3,757 - -21.6°
Reaches altitude 10° 06:15:23 10° 238° (WSW) 2,847 - -21.4°
Maximum altitude 06:20:11 20° 194° (SSW) 2,260 - -21.1°
Drops below altitude 10° 06:25:11 10° 150° (SSE) 2,973 - -20.7°
Exits shadow 06:26:04 - 145° (SE) 3,197 9.9 -20.6°
Sets 06:28:51 0° 134° (SE) 3,977 10.5 -20.4°
